Year,Month,Day,Hour,Minute,Value (Times are PST for barometer in hPa)
2016,10,15,00,00,995.29
2016,10,15,00,01,995.33
2016,10,15,00,02,995.33
2016,10,15,00,03,995.36
2016,10,15,00,04,995.40
2016,10,15,00,05,995.36
2016,10,15,00,06,995.36
2016,10,15,00,07,995.43
2016,10,15,00,08,995.46
2016,10,15,00,09,995.50
2016,10,15,00,10,995.46
2016,10,15,00,11,995.43
2016,10,15,00,12,995.46
2016,10,15,00,13,995.43
2016,10,15,00,14,995.43
2016,10,15,00,15,995.46
2016,10,15,00,16,995.46
2016,10,15,00,17,995.50
2016,10,15,00,18,995.53
2016,10,15,00,19,995.50
2016,10,15,00,20,995.50
2016,10,15,00,21,995.46
2016,10,15,00,22,995.50
2016,10,15,00,23,995.46
2016,10,15,00,24,995.50
2016,10,15,00,25,995.46
2016,10,15,00,26,995.53
2016,10,15,00,27,995.53
2016,10,15,00,28,995.53
2016,10,15,00,29,995.60
2016,10,15,00,30,995.60
2016,10,15,00,31,995.56
2016,10,15,00,32,995.60
2016,10,15,00,33,995.60
2016,10,15,00,34,995.56
2016,10,15,00,35,995.56
2016,10,15,00,36,995.53
2016,10,15,00,37,995.50
2016,10,15,00,38,995.56
2016,10,15,00,39,995.63
2016,10,15,00,40,995.70
2016,10,15,00,41,995.67
2016,10,15,00,42,995.70
2016,10,15,00,43,995.70
2016,10,15,00,44,995.63
2016,10,15,00,45,995.67
2016,10,15,00,46,995.67
2016,10,15,00,47,995.63
2016,10,15,00,48,995.63
2016,10,15,00,49,995.70
2016,10,15,00,50,995.67
2016,10,15,00,51,995.67
2016,10,15,00,52,995.67
2016,10,15,00,53,995.63
2016,10,15,00,54,995.60
2016,10,15,00,55,995.67
2016,10,15,00,56,995.70
2016,10,15,00,57,995.67
2016,10,15,00,58,995.70
2016,10,15,00,59,995.67
2016,10,15,01,00,995.73
2016,10,15,01,01,995.80
2016,10,15,01,02,995.84
2016,10,15,01,03,995.90
2016,10,15,01,04,995.90
2016,10,15,01,05,995.90
2016,10,15,01,06,995.94
2016,10,15,01,07,995.94
2016,10,15,01,08,995.87
2016,10,15,01,09,995.87
2016,10,15,01,10,995.90
2016,10,15,01,11,995.94
2016,10,15,01,12,995.94
2016,10,15,01,13,995.90
2016,10,15,01,14,995.97
2016,10,15,01,15,995.97
2016,10,15,01,16,996.01
2016,10,15,01,17,995.97
2016,10,15,01,18,996.01
2016,10,15,01,19,996.01
2016,10,15,01,20,996.04
2016,10,15,01,21,996.01
2016,10,15,01,22,995.97
2016,10,15,01,23,995.97
2016,10,15,01,24,995.97
2016,10,15,01,25,995.97
2016,10,15,01,26,995.97
2016,10,15,01,27,996.01
2016,10,15,01,28,996.01
2016,10,15,01,29,996.01
2016,10,15,01,30,996.01
2016,10,15,01,31,996.01
2016,10,15,01,32,995.97
2016,10,15,01,33,996.01
2016,10,15,01,34,995.97
2016,10,15,01,35,995.97
2016,10,15,01,36,996.01
2016,10,15,01,37,996.01
2016,10,15,01,38,996.04
2016,10,15,01,39,996.01
2016,10,15,01,40,996.01
2016,10,15,01,41,996.01
2016,10,15,01,42,996.01
2016,10,15,01,43,996.01
2016,10,15,01,44,995.97
2016,10,15,01,45,996.01
2016,10,15,01,46,996.01
2016,10,15,01,47,996.04
2016,10,15,01,48,996.04
2016,10,15,01,49,996.07
2016,10,15,01,50,996.07
2016,10,15,01,51,996.07
2016,10,15,01,52,996.04
2016,10,15,01,53,996.11
2016,10,15,01,54,996.11
2016,10,15,01,55,996.07
2016,10,15,01,56,996.11
2016,10,15,01,57,996.11
2016,10,15,01,58,996.11
2016,10,15,01,59,996.14
2016,10,15,02,00,996.11
2016,10,15,02,01,996.11
2016,10,15,02,02,996.11
2016,10,15,02,03,996.14
2016,10,15,02,04,996.14
2016,10,15,02,05,996.14
2016,10,15,02,06,996.14
2016,10,15,02,07,996.14
2016,10,15,02,08,996.21
2016,10,15,02,09,996.17
2016,10,15,02,10,996.17
2016,10,15,02,11,996.17
2016,10,15,02,12,996.14
2016,10,15,02,13,996.14
2016,10,15,02,14,996.14
2016,10,15,02,15,996.17
2016,10,15,02,16,996.14
2016,10,15,02,17,996.14
2016,10,15,02,18,996.21
2016,10,15,02,19,996.17
2016,10,15,02,20,996.21
2016,10,15,02,21,996.21
2016,10,15,02,22,996.24
2016,10,15,02,23,996.24
2016,10,15,02,24,996.24
2016,10,15,02,25,996.21
2016,10,15,02,26,996.24
2016,10,15,02,27,996.28
2016,10,15,02,28,996.24
2016,10,15,02,29,996.21
2016,10,15,02,30,996.21
2016,10,15,02,31,996.21
2016,10,15,02,32,996.17
2016,10,15,02,33,996.21
2016,10,15,02,34,996.21
2016,10,15,02,35,996.24
2016,10,15,02,36,996.24
2016,10,15,02,37,996.24
2016,10,15,02,38,996.24
2016,10,15,02,39,996.24
2016,10,15,02,40,996.24
2016,10,15,02,41,996.24
2016,10,15,02,42,996.21
2016,10,15,02,43,996.21
2016,10,15,02,44,996.21
2016,10,15,02,45,996.21
2016,10,15,02,46,996.24
2016,10,15,02,47,996.21
2016,10,15,02,48,996.24
2016,10,15,02,49,996.28
2016,10,15,02,50,996.28
2016,10,15,02,51,996.24
2016,10,15,02,52,996.28
2016,10,15,02,53,996.28
2016,10,15,02,54,996.24
2016,10,15,02,55,996.24
2016,10,15,02,56,996.24
2016,10,15,02,57,996.28
2016,10,15,02,58,996.24
2016,10,15,02,59,996.21
2016,10,15,03,00,996.24
2016,10,15,03,01,996.24
2016,10,15,03,02,996.24
2016,10,15,03,03,996.21
2016,10,15,03,04,996.24
2016,10,15,03,05,996.24
2016,10,15,03,06,996.24
2016,10,15,03,07,996.28
2016,10,15,03,08,996.28
2016,10,15,03,09,996.24
2016,10,15,03,10,996.21
2016,10,15,03,11,996.17
2016,10,15,03,12,996.17
2016,10,15,03,13,996.17
2016,10,15,03,14,996.14
2016,10,15,03,15,996.14
2016,10,15,03,16,996.21
2016,10,15,03,17,996.17
2016,10,15,03,18,996.17
2016,10,15,03,19,996.17
2016,10,15,03,20,996.21
2016,10,15,03,21,996.17
2016,10,15,03,22,996.17
2016,10,15,03,23,996.21
2016,10,15,03,24,996.21
2016,10,15,03,25,996.21
2016,10,15,03,26,996.24
2016,10,15,03,27,996.17
2016,10,15,03,28,996.17
2016,10,15,03,29,996.17
2016,10,15,03,30,996.14
2016,10,15,03,31,996.14
2016,10,15,03,32,996.14
2016,10,15,03,33,996.11
2016,10,15,03,34,996.07
2016,10,15,03,35,996.04
2016,10,15,03,36,996.04
2016,10,15,03,37,996.07
2016,10,15,03,38,996.07
2016,10,15,03,39,996.07
2016,10,15,03,40,996.04
2016,10,15,03,41,996.07
2016,10,15,03,42,996.04
2016,10,15,03,43,996.04
2016,10,15,03,44,996.07
2016,10,15,03,45,996.07
2016,10,15,03,46,996.04
2016,10,15,03,47,996.07
2016,10,15,03,48,996.04
2016,10,15,03,49,996.04
2016,10,15,03,50,996.01
2016,10,15,03,51,996.01
2016,10,15,03,52,996.01
2016,10,15,03,53,995.97
2016,10,15,03,54,996.01
2016,10,15,03,55,995.97
2016,10,15,03,56,995.97
2016,10,15,03,57,995.94
2016,10,15,03,58,996.01
2016,10,15,03,59,996.04
2016,10,15,04,00,996.01
2016,10,15,04,01,996.01
2016,10,15,04,02,995.97
2016,10,15,04,03,996.01
2016,10,15,04,04,995.97
2016,10,15,04,05,995.97
2016,10,15,04,06,995.94
2016,10,15,04,07,995.97
2016,10,15,04,08,995.94
2016,10,15,04,09,996.01
2016,10,15,04,10,995.97
2016,10,15,04,11,995.94
2016,10,15,04,12,995.94
2016,10,15,04,13,995.90
2016,10,15,04,14,995.84
2016,10,15,04,15,995.84
2016,10,15,04,16,995.84
2016,10,15,04,17,995.80
2016,10,15,04,18,995.80
2016,10,15,04,19,995.80
2016,10,15,04,20,995.80
2016,10,15,04,21,995.80
2016,10,15,04,22,995.80
2016,10,15,04,23,995.77
2016,10,15,04,24,995.77
2016,10,15,04,25,995.77
2016,10,15,04,26,995.77
2016,10,15,04,27,995.77
2016,10,15,04,28,995.80
2016,10,15,04,29,995.84
2016,10,15,04,30,995.77
2016,10,15,04,31,995.80
2016,10,15,04,32,995.80
2016,10,15,04,33,995.84
2016,10,15,04,34,995.80
2016,10,15,04,35,995.80
2016,10,15,04,36,995.84
2016,10,15,04,37,995.84
2016,10,15,04,38,995.80
2016,10,15,04,39,995.77
2016,10,15,04,40,995.77
2016,10,15,04,41,995.73
2016,10,15,04,42,995.77
2016,10,15,04,43,995.77
2016,10,15,04,44,995.77
2016,10,15,04,45,995.77
2016,10,15,04,46,995.73
2016,10,15,04,47,995.70
2016,10,15,04,48,995.70
2016,10,15,04,49,995.70
2016,10,15,04,50,995.70
2016,10,15,04,51,995.67
2016,10,15,04,52,995.67
2016,10,15,04,53,995.67
2016,10,15,04,54,995.67
2016,10,15,04,55,995.67
2016,10,15,04,56,995.63
2016,10,15,04,57,995.63
2016,10,15,04,58,995.67
2016,10,15,04,59,995.67
2016,10,15,05,00,995.63
2016,10,15,05,01,995.63
2016,10,15,05,02,995.63
2016,10,15,05,03,995.63
2016,10,15,05,04,995.67
2016,10,15,05,05,995.63
2016,10,15,05,06,995.67
2016,10,15,05,07,995.67
2016,10,15,05,08,995.67
2016,10,15,05,09,995.67
2016,10,15,05,10,995.63
2016,10,15,05,11,995.63
2016,10,15,05,12,995.60
2016,10,15,05,13,995.60
2016,10,15,05,14,995.60
2016,10,15,05,15,995.56
2016,10,15,05,16,995.53
2016,10,15,05,17,995.53
2016,10,15,05,18,995.53
2016,10,15,05,19,995.53
2016,10,15,05,20,995.56
2016,10,15,05,21,995.53
2016,10,15,05,22,995.50
2016,10,15,05,23,995.46
2016,10,15,05,24,995.43
2016,10,15,05,25,995.40
2016,10,15,05,26,995.40
2016,10,15,05,27,995.43
2016,10,15,05,28,995.40
2016,10,15,05,29,995.46
2016,10,15,05,30,995.43
2016,10,15,05,31,995.46
2016,10,15,05,32,995.46
2016,10,15,05,33,995.43
2016,10,15,05,34,995.43
2016,10,15,05,35,995.43
2016,10,15,05,36,995.53
2016,10,15,05,37,995.50
2016,10,15,05,38,995.50
2016,10,15,05,39,995.50
2016,10,15,05,40,995.50
2016,10,15,05,41,995.50
2016,10,15,05,42,995.56
2016,10,15,05,43,995.50
2016,10,15,05,44,995.50
2016,10,15,05,45,995.43
2016,10,15,05,46,995.46
2016,10,15,05,47,995.46
2016,10,15,05,48,995.43
2016,10,15,05,49,995.53
2016,10,15,05,50,995.53
2016,10,15,05,51,995.50
2016,10,15,05,52,995.50
2016,10,15,05,53,995.50
2016,10,15,05,54,995.46
2016,10,15,05,55,995.50
2016,10,15,05,56,995.50
2016,10,15,05,57,995.46
2016,10,15,05,58,995.43
2016,10,15,05,59,995.40
2016,10,15,06,00,995.36
2016,10,15,06,01,995.43
2016,10,15,06,02,995.40
2016,10,15,06,03,995.36
2016,10,15,06,04,995.40
2016,10,15,06,05,995.36
2016,10,15,06,06,995.36
2016,10,15,06,07,995.40
2016,10,15,06,08,995.40
2016,10,15,06,09,995.40
2016,10,15,06,10,995.40
2016,10,15,06,11,995.36
2016,10,15,06,12,995.29
2016,10,15,06,13,995.26
2016,10,15,06,14,995.23
2016,10,15,06,15,995.23
2016,10,15,06,16,995.23
2016,10,15,06,17,995.23
2016,10,15,06,18,995.23
2016,10,15,06,19,995.19
2016,10,15,06,20,995.23
2016,10,15,06,21,995.23
2016,10,15,06,22,995.23
2016,10,15,06,23,995.29
2016,10,15,06,24,995.33
2016,10,15,06,25,995.26
2016,10,15,06,26,995.19
2016,10,15,06,27,995.23
2016,10,15,06,28,995.26
2016,10,15,06,29,995.23
2016,10,15,06,30,995.19
2016,10,15,06,31,995.19
2016,10,15,06,32,995.19
2016,10,15,06,33,995.16
2016,10,15,06,34,995.12
2016,10,15,06,35,995.06
2016,10,15,06,36,995.02
2016,10,15,06,37,994.96
2016,10,15,06,38,994.92
2016,10,15,06,39,994.92
2016,10,15,06,40,994.92
2016,10,15,06,41,994.92
2016,10,15,06,42,994.99
2016,10,15,06,43,995.02
2016,10,15,06,44,995.06
2016,10,15,06,45,995.09
2016,10,15,06,46,995.16
2016,10,15,06,47,995.16
2016,10,15,06,48,995.16
2016,10,15,06,49,995.16
2016,10,15,06,50,995.12
2016,10,15,06,51,995.09
2016,10,15,06,52,995.06
2016,10,15,06,53,995.06
2016,10,15,06,54,995.02
2016,10,15,06,55,994.99
2016,10,15,06,56,994.96
2016,10,15,06,57,994.96
2016,10,15,06,58,994.99
2016,10,15,06,59,994.99
2016,10,15,07,00,994.96
2016,10,15,07,01,994.96
2016,10,15,07,02,994.96
2016,10,15,07,03,994.89
2016,10,15,07,04,994.85
2016,10,15,07,05,994.89
2016,10,15,07,06,994.79
2016,10,15,07,07,994.72
2016,10,15,07,08,994.72
2016,10,15,07,09,994.68
2016,10,15,07,10,994.68
2016,10,15,07,11,994.75
2016,10,15,07,12,994.75
2016,10,15,07,13,994.79
2016,10,15,07,14,994.85
2016,10,15,07,15,994.85
2016,10,15,07,16,994.85
2016,10,15,07,17,994.82
2016,10,15,07,18,994.85
2016,10,15,07,19,994.82
2016,10,15,07,20,994.79
2016,10,15,07,21,994.75
2016,10,15,07,22,994.75
2016,10,15,07,23,994.75
2016,10,15,07,24,994.72
2016,10,15,07,25,994.68
2016,10,15,07,26,994.65
2016,10,15,07,27,994.65
2016,10,15,07,28,994.62
2016,10,15,07,29,994.65
2016,10,15,07,30,994.65
2016,10,15,07,31,994.65
2016,10,15,07,32,994.58
2016,10,15,07,33,994.58
2016,10,15,07,34,994.58
2016,10,15,07,35,994.58
2016,10,15,07,36,994.55
2016,10,15,07,37,994.58
2016,10,15,07,38,994.58
2016,10,15,07,39,994.62
2016,10,15,07,40,994.65
2016,10,15,07,41,994.62
2016,10,15,07,42,994.65
2016,10,15,07,43,994.62
2016,10,15,07,44,994.58
2016,10,15,07,45,994.58
2016,10,15,07,46,994.55
2016,10,15,07,47,994.48
2016,10,15,07,48,994.41
2016,10,15,07,49,994.38
2016,10,15,07,50,994.38
2016,10,15,07,51,994.35
2016,10,15,07,52,994.38
2016,10,15,07,53,994.35
2016,10,15,07,54,994.31
2016,10,15,07,55,994.24
2016,10,15,07,56,994.21
2016,10,15,07,57,994.18
2016,10,15,07,58,994.18
2016,10,15,07,59,994.18
2016,10,15,08,00,994.18
2016,10,15,08,01,994.18
2016,10,15,08,02,994.11
2016,10,15,08,03,994.14
2016,10,15,08,04,994.14
2016,10,15,08,05,994.14
2016,10,15,08,06,994.14
2016,10,15,08,07,994.14
2016,10,15,08,08,994.18
2016,10,15,08,09,994.18
2016,10,15,08,10,994.18
2016,10,15,08,11,994.14
2016,10,15,08,12,994.18
2016,10,15,08,13,994.14
2016,10,15,08,14,994.18
2016,10,15,08,15,994.18
2016,10,15,08,16,994.18
2016,10,15,08,17,994.18
2016,10,15,08,18,994.18
2016,10,15,08,19,994.18
2016,10,15,08,20,994.18
2016,10,15,08,21,994.21
2016,10,15,08,22,994.18
2016,10,15,08,23,994.18
2016,10,15,08,24,994.18
2016,10,15,08,25,994.14
2016,10,15,08,26,994.14
2016,10,15,08,27,994.18
2016,10,15,08,28,994.18
2016,10,15,08,29,994.18
2016,10,15,08,30,994.18
2016,10,15,08,31,994.14
2016,10,15,08,32,994.14
2016,10,15,08,33,994.11
2016,10,15,08,34,994.07
2016,10,15,08,35,994.07
2016,10,15,08,36,994.11
2016,10,15,08,37,994.07
2016,10,15,08,38,994.04
2016,10,15,08,39,994.01
2016,10,15,08,40,994.04
2016,10,15,08,41,994.01
2016,10,15,08,42,993.97
2016,10,15,08,43,994.01
2016,10,15,08,44,993.97
2016,10,15,08,45,993.94
2016,10,15,08,46,993.87
2016,10,15,08,47,993.91
2016,10,15,08,48,993.87
2016,10,15,08,49,993.87
2016,10,15,08,50,993.87
2016,10,15,08,51,993.87
2016,10,15,08,52,993.91
2016,10,15,08,53,993.94
2016,10,15,08,54,993.94
2016,10,15,08,55,993.87
2016,10,15,08,56,993.87
2016,10,15,08,57,993.87
2016,10,15,08,58,993.87
2016,10,15,08,59,993.87
2016,10,15,09,00,993.84
2016,10,15,09,01,993.87
2016,10,15,09,02,993.87
2016,10,15,09,03,993.84
2016,10,15,09,04,993.87
2016,10,15,09,05,993.84
2016,10,15,09,06,993.80
2016,10,15,09,07,993.84
2016,10,15,09,08,993.77
2016,10,15,09,09,993.84
2016,10,15,09,10,993.77
2016,10,15,09,11,993.74
2016,10,15,09,12,993.67
2016,10,15,09,13,993.67
2016,10,15,09,14,993.63
2016,10,15,09,15,993.60
2016,10,15,09,16,993.57
2016,10,15,09,17,993.57
2016,10,15,09,18,993.53
2016,10,15,09,19,993.53
2016,10,15,09,20,993.50
2016,10,15,09,21,993.50
2016,10,15,09,22,993.43
2016,10,15,09,23,993.40
2016,10,15,09,24,993.40
2016,10,15,09,25,993.36
2016,10,15,09,26,993.33
2016,10,15,09,27,993.30
2016,10,15,09,28,993.23
2016,10,15,09,29,993.19
2016,10,15,09,30,993.13
2016,10,15,09,31,993.13
2016,10,15,09,32,993.09
2016,10,15,09,33,993.06
2016,10,15,09,34,993.03
2016,10,15,09,35,993.03
2016,10,15,09,36,992.96
2016,10,15,09,37,992.99
2016,10,15,09,38,992.96
2016,10,15,09,39,992.86
2016,10,15,09,40,992.86
2016,10,15,09,41,992.82
2016,10,15,09,42,992.86
2016,10,15,09,43,992.82
2016,10,15,09,44,992.75
2016,10,15,09,45,992.72
2016,10,15,09,46,992.69
2016,10,15,09,47,992.69
2016,10,15,09,48,992.62
2016,10,15,09,49,992.58
2016,10,15,09,50,992.55
2016,10,15,09,51,992.48
2016,10,15,09,52,992.45
2016,10,15,09,53,992.45
2016,10,15,09,54,992.42
2016,10,15,09,55,992.42
2016,10,15,09,56,992.35
2016,10,15,09,57,992.31
2016,10,15,09,58,992.31
2016,10,15,09,59,992.31
2016,10,15,10,00,992.28
2016,10,15,10,01,992.18
2016,10,15,10,02,992.18
2016,10,15,10,03,992.14
2016,10,15,10,04,992.14
2016,10,15,10,05,992.01
2016,10,15,10,06,992.01
2016,10,15,10,07,991.98
2016,10,15,10,08,991.98
2016,10,15,10,09,991.98
2016,10,15,10,10,991.94
2016,10,15,10,11,991.94
2016,10,15,10,12,991.91
2016,10,15,10,13,991.94
2016,10,15,10,14,991.91
2016,10,15,10,15,991.94
2016,10,15,10,16,991.87
2016,10,15,10,17,991.91
2016,10,15,10,18,991.87
2016,10,15,10,19,991.81
2016,10,15,10,20,991.77
2016,10,15,10,21,991.74
2016,10,15,10,22,991.60
2016,10,15,10,23,991.64
2016,10,15,10,24,991.60
2016,10,15,10,25,991.53
2016,10,15,10,26,991.50
2016,10,15,10,27,991.50
2016,10,15,10,28,991.50
2016,10,15,10,29,991.43
2016,10,15,10,30,991.43
2016,10,15,10,31,991.43
2016,10,15,10,32,991.43
2016,10,15,10,33,991.40
2016,10,15,10,34,991.40
2016,10,15,10,35,991.40
2016,10,15,10,36,991.37
2016,10,15,10,37,991.26
2016,10,15,10,38,991.26
2016,10,15,10,39,991.26
2016,10,15,10,40,991.23
2016,10,15,10,41,991.20
2016,10,15,10,42,991.23
2016,10,15,10,43,991.23
2016,10,15,10,44,991.16
2016,10,15,10,45,991.09
2016,10,15,10,46,991.03
2016,10,15,10,47,991.03
2016,10,15,10,48,991.06
2016,10,15,10,49,990.99
2016,10,15,10,50,990.96
2016,10,15,10,51,990.96
2016,10,15,10,52,990.96
2016,10,15,10,53,990.93
2016,10,15,10,54,990.96
2016,10,15,10,55,990.93
2016,10,15,10,56,990.93
2016,10,15,10,57,990.86
2016,10,15,10,58,990.82
2016,10,15,10,59,990.82
2016,10,15,11,00,990.79
2016,10,15,11,01,990.76
2016,10,15,11,02,990.78
2016,10,15,11,03,990.69
2016,10,15,11,04,990.69
2016,10,15,11,05,990.59
2016,10,15,11,06,990.62
2016,10,15,11,07,990.55
2016,10,15,11,08,990.59
2016,10,15,11,09,990.45
2016,10,15,11,10,990.52
2016,10,15,11,11,990.49
2016,10,15,11,12,990.45
2016,10,15,11,13,990.38
2016,10,15,11,14,990.35
2016,10,15,11,15,990.28
2016,10,15,11,16,990.25
2016,10,15,11,17,990.18
2016,10,15,11,18,990.18
2016,10,15,11,19,990.15
2016,10,15,11,20,990.11
2016,10,15,11,21,990.04
2016,10,15,11,22,990.01
2016,10,15,11,23,989.98
2016,10,15,11,24,989.94
2016,10,15,11,25,989.94
2016,10,15,11,26,989.98
2016,10,15,11,27,989.98
2016,10,15,11,28,989.91
2016,10,15,11,29,989.91
2016,10,15,11,30,989.91
2016,10,15,11,31,989.91
2016,10,15,11,32,989.88
2016,10,15,11,33,989.91
2016,10,15,11,34,989.84
2016,10,15,11,35,989.84
2016,10,15,11,36,989.77
2016,10,15,11,37,989.77
2016,10,15,11,38,989.67
2016,10,15,11,39,989.60
2016,10,15,11,40,989.64
2016,10,15,11,41,989.67
2016,10,15,11,42,989.57
2016,10,15,11,43,989.47
2016,10,15,11,44,989.47
2016,10,15,11,45,989.47
2016,10,15,11,46,989.40
2016,10,15,11,47,989.37
2016,10,15,11,48,989.30
2016,10,15,11,49,989.30
2016,10,15,11,50,989.27
2016,10,15,11,51,989.27
2016,10,15,11,52,989.23
2016,10,15,11,53,989.14
2016,10,15,11,54,989.16
2016,10,15,11,55,989.06
2016,10,15,11,56,989.00
2016,10,15,11,57,988.93
2016,10,15,11,58,988.93
2016,10,15,11,59,988.93
2016,10,15,12,00,988.86
2016,10,15,12,01,988.86
2016,10,15,12,02,988.76
2016,10,15,12,03,988.79
2016,10,15,12,04,988.69
2016,10,15,12,05,988.65
2016,10,15,12,06,988.52
2016,10,15,12,07,988.52
2016,10,15,12,08,988.49
2016,10,15,12,09,988.45
2016,10,15,12,10,988.45
2016,10,15,12,11,988.39
2016,10,15,12,12,988.32
2016,10,15,12,13,988.28
2016,10,15,12,14,988.15
2016,10,15,12,15,988.18
2016,10,15,12,16,988.18
2016,10,15,12,17,988.11
2016,10,15,12,18,988.11
2016,10,15,12,19,988.11
2016,10,15,12,20,988.08
2016,10,15,12,21,988.08
2016,10,15,12,22,988.05
2016,10,15,12,23,988.01
2016,10,15,12,24,988.05
2016,10,15,12,25,987.92
2016,10,15,12,26,987.98
2016,10,15,12,27,987.91
2016,10,15,12,28,987.79
2016,10,15,12,29,987.84
2016,10,15,12,30,987.78
2016,10,15,12,31,987.88
2016,10,15,12,32,987.78
2016,10,15,12,33,987.71
2016,10,15,12,34,987.61
2016,10,15,12,35,987.61
2016,10,15,12,36,987.64
2016,10,15,12,37,987.57
2016,10,15,12,38,987.54
2016,10,15,12,39,987.47
2016,10,15,12,40,987.44
2016,10,15,12,41,987.44
2016,10,15,12,42,987.37
2016,10,15,12,43,987.30
2016,10,15,12,44,987.30
2016,10,15,12,45,987.27
2016,10,15,12,46,987.23
2016,10,15,12,47,987.17
2016,10,15,12,48,987.16
2016,10,15,12,49,987.03
2016,10,15,12,50,987.00
2016,10,15,12,51,986.93
2016,10,15,12,52,986.86
2016,10,15,12,53,986.90
2016,10,15,12,54,986.83
2016,10,15,12,55,986.83
2016,10,15,12,56,986.69
2016,10,15,12,57,986.76
2016,10,15,12,58,986.69
2016,10,15,12,59,986.59
2016,10,15,13,00,986.59
2016,10,15,13,01,986.52
2016,10,15,13,02,986.56
2016,10,15,13,03,986.56
2016,10,15,13,04,986.46
2016,10,15,13,05,986.42
2016,10,15,13,06,986.39
2016,10,15,13,07,986.29
2016,10,15,13,08,986.32
2016,10,15,13,09,986.25
2016,10,15,13,10,986.25
2016,10,15,13,11,986.25
2016,10,15,13,12,986.15
2016,10,15,13,13,986.15
2016,10,15,13,14,986.08
2016,10,15,13,15,986.08
2016,10,15,13,16,986.05
2016,10,15,13,17,985.95
2016,10,15,13,18,985.95
2016,10,15,13,19,985.85
2016,10,15,13,20,985.81
2016,10,15,13,21,985.68
2016,10,15,13,22,985.57
2016,10,15,13,23,985.57
2016,10,15,13,24,985.57
2016,10,15,13,25,985.47
2016,10,15,13,26,985.30
2016,10,15,13,27,985.30
2016,10,15,13,28,985.30
2016,10,15,13,29,985.24
2016,10,15,13,30,985.27
2016,10,15,13,31,985.27
2016,10,15,13,32,985.24
2016,10,15,13,33,985.24
2016,10,15,13,34,985.13
2016,10,15,13,35,985.10
2016,10,15,13,36,985.10
2016,10,15,13,37,985.07
2016,10,15,13,38,985.00
2016,10,15,13,39,984.97
2016,10,15,13,40,984.97
2016,10,15,13,41,984.90
2016,10,15,13,42,984.90
2016,10,15,13,43,984.83
2016,10,15,13,44,984.86
2016,10,15,13,45,984.80
2016,10,15,13,46,984.80
2016,10,15,13,47,984.76
2016,10,15,13,48,984.76
2016,10,15,13,49,984.69
2016,10,15,13,50,984.66
2016,10,15,13,51,984.63
2016,10,15,13,52,984.59
2016,10,15,13,53,984.63
2016,10,15,13,54,984.59
2016,10,15,13,55,984.59
2016,10,15,13,56,984.53
2016,10,15,13,57,984.46
2016,10,15,13,58,984.42
2016,10,15,13,59,984.39
2016,10,15,14,00,984.36
2016,10,15,14,01,984.25
2016,10,15,14,02,984.22
2016,10,15,14,03,984.25
2016,10,15,14,04,984.19
2016,10,15,14,05,984.15
2016,10,15,14,06,984.12
2016,10,15,14,07,984.08
2016,10,15,14,08,984.02
2016,10,15,14,09,984.02
2016,10,15,14,10,983.95
2016,10,15,14,11,983.95
2016,10,15,14,12,983.92
2016,10,15,14,13,983.92
2016,10,15,14,14,983.85
2016,10,15,14,15,983.85
2016,10,15,14,16,983.85
2016,10,15,14,17,983.78
2016,10,15,14,18,983.78
2016,10,15,14,19,983.71
2016,10,15,14,20,983.71
2016,10,15,14,21,983.68
2016,10,15,14,22,983.61
2016,10,15,14,23,983.58
2016,10,15,14,24,983.51
2016,10,15,14,25,983.51
2016,10,15,14,26,983.41
2016,10,15,14,27,983.37
2016,10,15,14,28,983.31
2016,10,15,14,29,983.20
2016,10,15,14,30,983.20
2016,10,15,14,31,983.17
2016,10,15,14,32,983.00
2016,10,15,14,33,982.93
2016,10,15,14,34,982.87
2016,10,15,14,35,982.80
2016,10,15,14,36,982.66
2016,10,15,14,37,982.56
2016,10,15,14,38,982.56
2016,10,15,14,39,982.46
2016,10,15,14,40,982.56
2016,10,15,14,41,982.43
2016,10,15,14,42,982.39
2016,10,15,14,43,982.32
2016,10,15,14,44,982.39
2016,10,15,14,45,982.32
2016,10,15,14,46,982.29
2016,10,15,14,47,982.22
2016,10,15,14,48,982.15
2016,10,15,14,49,982.09
2016,10,15,14,50,982.05
2016,10,15,14,51,981.99
2016,10,15,14,52,981.99
2016,10,15,14,53,981.99
2016,10,15,14,54,981.95
2016,10,15,14,55,981.88
2016,10,15,14,56,981.85
2016,10,15,14,57,981.85
2016,10,15,14,58,981.85
2016,10,15,14,59,981.78
2016,10,15,15,00,981.82
2016,10,15,15,01,981.75
2016,10,15,15,02,981.61
2016,10,15,15,03,981.55
2016,10,15,15,04,981.61
2016,10,15,15,05,981.55
2016,10,15,15,06,981.55
2016,10,15,15,07,981.48
2016,10,15,15,08,981.48
2016,10,15,15,09,981.51
2016,10,15,15,10,981.55
2016,10,15,15,11,981.51
2016,10,15,15,12,981.51
2016,10,15,15,13,981.58
2016,10,15,15,14,981.52
2016,10,15,15,15,981.58
2016,10,15,15,16,981.55
2016,10,15,15,17,981.48
2016,10,15,15,18,981.51
2016,10,15,15,19,981.48
2016,10,15,15,20,981.48
2016,10,15,15,21,981.44
2016,10,15,15,22,981.44
2016,10,15,15,23,981.38
2016,10,15,15,24,981.38
2016,10,15,15,25,981.41
2016,10,15,15,26,981.31
2016,10,15,15,27,981.24
2016,10,15,15,28,981.27
2016,10,15,15,29,981.14
2016,10,15,15,30,981.14
2016,10,15,15,31,981.14
2016,10,15,15,32,981.00
2016,10,15,15,33,981.04
2016,10,15,15,34,980.97
2016,10,15,15,35,981.00
2016,10,15,15,36,981.00
2016,10,15,15,37,981.04
2016,10,15,15,38,981.10
2016,10,15,15,39,981.10
2016,10,15,15,40,981.17
2016,10,15,15,41,981.10
2016,10,15,15,42,981.14
2016,10,15,15,43,981.04
2016,10,15,15,44,981.00
2016,10,15,15,45,980.97
2016,10,15,15,46,980.87
2016,10,15,15,47,980.73
2016,10,15,15,48,980.70
2016,10,15,15,49,980.70
2016,10,15,15,50,980.66
2016,10,15,15,51,980.56
2016,10,15,15,52,980.56
2016,10,15,15,53,980.53
2016,10,15,15,54,980.53
2016,10,15,15,55,980.43
2016,10,15,15,56,980.36
2016,10,15,15,57,980.33
2016,10,15,15,58,980.22
2016,10,15,15,59,980.22
2016,10,15,16,00,980.19
2016,10,15,16,01,980.22
2016,10,15,16,02,980.19
2016,10,15,16,03,980.16
2016,10,15,16,04,980.22
2016,10,15,16,05,980.12
2016,10,15,16,06,980.16
2016,10,15,16,07,980.09
2016,10,15,16,08,980.02
2016,10,15,16,09,979.95
2016,10,15,16,10,979.89
2016,10,15,16,11,979.92
2016,10,15,16,12,979.92
2016,10,15,16,13,979.92
2016,10,15,16,14,979.89
2016,10,15,16,15,979.78
2016,10,15,16,16,979.82
2016,10,15,16,17,979.72
2016,10,15,16,18,979.78
2016,10,15,16,19,979.68
2016,10,15,16,20,979.65
2016,10,15,16,21,979.58
2016,10,15,16,22,979.58
2016,10,15,16,23,979.51
2016,10,15,16,24,979.51
2016,10,15,16,25,979.48
2016,10,15,16,26,979.45
2016,10,15,16,27,979.45
2016,10,15,16,28,979.48
2016,10,15,16,29,979.38
2016,10,15,16,30,979.34
2016,10,15,16,31,979.24
2016,10,15,16,32,979.15
2016,10,15,16,33,979.14
2016,10,15,16,34,979.07
2016,10,15,16,35,979.04
2016,10,15,16,36,978.97